Tracking 19854 objects as of 22-Sep-2019
HD Live streaming from Space Station
objects crossing your sky now

ATLAS D DEB

Track ATLAS D DEB now!
10-day predictions


NORAD ID: 2327
Int'l Code: 1966-063B
Perigee: 881.4 km
Apogee: 921.8 km
Inclination: 144.2 °
Period: 102.9 minutes
Semi major axis: 7272 km
RCS: 0.284 m2 (medium)
Launch date: July 14, 1966
Source: United States (US)
Launch site: AIR FORCE WESTERN TEST RANGE (AFWTR)

Note: This is SATELLITE DEBRIS
aabbcc
Your satellite tracking list
Your tracking list is empty




NASA's NSSDC Master Catalog

Two Line Element Set (TLE):
1  2327U 66063B   19265.87479828  .00000636  00000-0  24745-3 0  9991
2  2327 144.1986 269.6675 0027811  19.4714 340.7036 13.99807061693314
Source of the keplerian elements: AFSPC